{"data":{"norad_id":68700,"intl_designator":"2026-081B","name":"STARLINK-37334","alt_names":[],"object_type":"PAYLOAD","status":"ACTIVE","operator":null,"country":"US","launch_date":"2026-04-14","launch_site_code":"AFETR","launch_vehicle":null,"mission":null,"orbit_class":"UNKNOWN","rcs_meters":null,"size_class":null,"mass_kg":null,"dimensions":null,"purposes":["comms"],"wikipedia_slug":null,"has_3d_model":false,"image_url":null,"decayed_at":null,"tle_current":{"epoch":"2026-09-20T04:07:44.654304Z","epoch_age_seconds":72240,"freshness":"FRESH","line1":"1 68700U 26081B   26263.17204461  .00012042  00000+0  36693-3 0  9990","line2":"2 68700  53.1595 207.5734 0001505  88.7035 271.4140 15.34403765 24565","mean_motion":15.34403765,"eccentricity":0.0001505,"inclination_deg":53.1595,"raan_deg":207.5734,"arg_perigee_deg":88.7035,"mean_anomaly_deg":271.414,"bstar":0.00036693,"rev_number":2456,"period_min":93.847527805043,"perigee_km":461.66250508455,"apogee_km":463.72159462855,"semimajor_km":6840.8290498565,"source":"CELESTRAK","updated_at":"2026-09-20T09:00:43.956276Z"}}}